Location: Nitra
(0.0000°N, 18.0833°E)
Time: 21:24:24
(UTC+02:00)

A-11 Canister half - Pass Details

Date: 02 April 2023
Orbit: 1526 x 1682 km, 47.3° (Epoch: 08 June)

Event Time Altitude Azimuth Distance (km) Brightness Sun altitude
Rises 22:11:43 0° 339° (NNW) 4,772 11.8 -49.9°
Reaches altitude 10° 22:15:19 10° 349° (NNW) 3,765 11.1 -50.7°
Enters shadow 22:15:33 11° 350° (N) 3,704 11.1 -50.8°
Maximum altitude 22:23:30 32° 49° (NE) 2,404 - -52.8°
Drops below altitude 10° 22:31:29 10° 108° (ESE) 3,697 - -54.7°
Sets 22:34:56 0° 118° (ESE) 4,674 - -55.6°
